Wind_Speed
46 44 42 40 41 42 42 41 43 44 45 44 42 41 40 40 39 37 35 35 35 36 36 36 35 34 34 35 34 34 34 36 38 40 42 43 43 44 44 44 44 45 47
51 49 47 44 43 43 43 41 42 44 45 45 44 43 42 41 39 37 35 35 36 37 38 37 36 36 37 37 36 37 38 39 41 43 46 47 46 46 47 47 47 48 51
51 52 51 47 44 44 44 43 42 43 44 45 44 43 42 40 37 36 36 36 36 38 38 38 38 39 39 39 39 40 42 43 44 46 47 48 48 47 48 50 51 53 56
49 51 52 50 46 44 45 43 43 43 44 43 42 41 41 38 37 36 36 36 36 37 38 39 40 42 42 42 42 44 45 46 47 48 49 49 50 50 48 49 53 56 58
49 50 52 52 49 46 45 44 44 44 43 42 40 40 40 37 36 36 36 37 37 38 39 40 42 43 44 44 45 46 47 49 50 50 50 50 52 53 53 53 55 58 60
50 50 51 53 51 49 46 44 44 44 43 41 39 39 39 37 36 36 37 38 39 40 40 41 43 44 45 46 47 48 49 50 51 51 51 52 53 54 57 59 60 61 63
53 50 51 52 52 49 46 44 44 43 42 41 39 39 39 38 37 37 38 39 40 41 42 43 44 46 47 47 48 48 50 51 51 51 52 53 55 58 61 64 65 66 67
54 52 50 51 51 49 45 43 43 43 43 41 40 40 40 38 37 37 38 39 40 41 42 43 45 46 47 47 48 49 51 51 51 52 54 56 59 62 64 66 68 70 71
54 52 50 50 50 49 45 43 43 43 43 41 40 40 40 38 37 37 37 39 40 41 42 43 44 45 46 47 48 49 51 51 52 54 57 60 62 64 66 69 72 74 74
53 52 50 49 49 48 46 45 44 44 44 42 41 40 40 38 37 36 37 38 39 41 42 42 43 44 45 47 48 50 51 52 54 57 60 62 64 66 69 72 73 74 75
51 51 50 48 47 46 46 45 44 44 44 42 41 40 39 38 37 36 37 38 39 40 41 42 43 44 46 48 49 50 51 54 57 60 62 64 67 70 71 72 74 75 77
47 49 48 46 45 44 44 44 44 44 44 42 40 40 39 38 37 37 37 38 39 40 41 42 43 45 47 48 49 51 54 57 60 62 65 67 69 70 72 73 75 76 79
44 46 46 44 42 41 41 42 43 44 43 41 39 39 39 38 38 38 38 39 39 40 41 42 44 46 47 48 51 54 57 60 62 64 66 68 69 71 73 74 76 79 83
41 43 42 41 40 39 40 41 42 42 41 39 38 38 38 38 38 38 39 39 40 41 41 43 45 46 48 51 54 57 60 62 64 66 68 69 71 72 74 76 80 85 90
37 39 38 38 37 37 37 39 39 39 38 37 37 37 37 37 38 39 39 40 40 40 41 44 45 47 51 54 57 59 61 63 65 67 69 70 71 73 77 81 87 92 98
33 34 34 34 34 34 34 35 35 35 34 34 35 35 36 37 38 39 39 38 39 40 42 44 47 50 53 56 58 61 63 65 67 68 69 71 73 77 82 88 94 100 104
30 31 30 30 30 31 31 31 31 32 31 32 33 34 36 37 36 36 36 36 37 40 43 46 49 53 55 57 60 62 64 66 68 69 70 73 77 83 88 94 100 103 101
26 27 27 27 27 27 27 28 28 28 29 31 32 33 33 32 32 32 33 35 38 42 45 49 51 54 56 59 61 63 65 66 68 70 73 78 83 90 95 99 101 96 86
22 23 23 23 23 23 23 23 25 26 27 28 28 28 28 29 30 32 34 37 41 44 47 50 52 54 57 60 62 63 64 66 69 73 78 84 90 95 100 99 93 80 67
20 20 21 21 21 21 21 22 23 23 24 24 25 26 27 28 30 33 36 40 43 46 48 50 53 55 58 60 61 63 64 67 72 78 84 90 95 99 97 89 76 61 52
17 18 18 18 18 18 19 19 19 20 21 22 23 25 27 29 32 35 39 41 43 46 48 51 54 56 58 59 60 63 68 72 77 83 89 94 96 93 84 71 58 49 43
13 13 13 14 14 15 15 16 16 17 19 20 23 25 28 31 34 37 39 41 44 46 49 52 54 56 56 58 62 67 72 77 82 88 93 94 89 78 66 54 46 41 39
8 9 9 10 11 12 13 14 15 17 19 21 24 27 29 32 35 37 39 42 44 47 49 51 52 54 57 61 66 71 76 82 87 91 91 84 73 61 51 43 39 38 37
7 8 9 10 10 11 13 14 16 17 19 22 25 28 30 33 35 37 40 42 45 47 48 49 51 55 60 64 69 74 80 85 89 87 78 66 56 47 39 36 35 34 33
7 8 9 9 10 11 12 14 16 18 21 24 27 30 32 34 36 39 41 43 45 45 46 49 53 58 63 68 73 79 84 87 84 74 62 51 43 37 34 33 33 32 32
7 8 9 9 10 11 13 16 19 22 25 27 29 31 33 35 37 40 41 42 43 45 48 52 57 62 67 72 78 84 86 82 72 59 47 39 34 32 31 30 30 31 31
Wind_Direction
249 249 249 247 245 246 247 246 246 249 251 253 255 257 260 261 263 262 261 260 260 259 256 257 260 264 269 273 278 282 284 285 287 289 291 292 293 292 292 291 289 289 289
249 248 249 248 246 246 247 247 245 247 249 251 253 256 258 261 263 263 261 261 260 258 257 259 262 267 271 275 279 282 284 287 289 291 293 294 292 292 292 291 290 291 291
248 247 246 246 246 245 247 247 246 247 249 251 253 255 257 260 261 261 259 259 260 259 259 261 265 269 273 276 280 283 285 287 289 291 292 292 291 292 291 292 292 293 293
247 245 244 244 244 244 245 246 246 247 249 251 253 255 257 258 257 257 258 260 261 261 261 264 267 271 275 278 282 284 286 287 289 290 291 290 291 290 288 287 289 290 292
246 243 241 241 241 242 243 244 244 245 248 250 253 255 258 258 258 259 259 260 261 263 264 267 270 273 276 279 282 284 286 288 289 291 290 290 291 291 290 289 289 290 291
247 241 239 239 238 239 240 241 242 244 247 250 253 256 259 260 260 260 260 261 263 265 267 270 272 275 278 280 282 284 286 288 290 290 290 291 292 292 292 292 292 292 292
245 241 237 236 237 238 239 239 240 243 246 248 251 255 259 261 262 262 263 263 264 266 268 271 274 276 279 281 283 285 286 288 290 290 291 292 293 293 294 294 295 295 295
241 240 235 233 234 234 235 236 237 240 244 246 250 254 259 261 263 264 264 264 265 267 270 273 275 278 281 283 284 286 287 289 290 291 292 293 294 295 296 296 296 296 296
236 236 234 231 231 232 232 233 234 237 241 244 248 253 258 261 263 264 265 265 267 269 272 275 278 280 282 284 285 286 288 291 292 293 294 295 297 297 298 298 298 299 299
231 231 230 229 229 229 229 229 231 235 239 242 246 251 257 260 263 265 266 267 269 271 274 277 280 282 284 285 286 289 291 293 294 295 297 298 298 299 299 300 301 301 301
225 224 225 225 226 227 228 229 231 234 237 240 244 250 255 260 263 265 267 269 271 275 278 280 283 284 285 287 289 292 293 295 296 297 299 299 300 301 302 302 303 303 303
218 218 220 221 222 224 226 228 229 232 235 238 242 248 254 259 262 265 268 271 274 279 281 283 285 286 288 290 292 294 296 297 298 300 301 302 303 303 304 305 305 305 305
210 212 214 216 218 220 223 225 227 230 233 237 242 249 255 259 263 266 270 273 277 281 283 285 286 288 290 291 293 296 297 299 301 302 303 304 305 305 306 306 306 306 306
203 205 208 211 213 215 218 221 225 228 232 237 243 250 255 260 265 269 272 276 279 282 284 286 288 289 291 293 295 298 300 302 303 304 305 306 306 307 307 307 307 307 307
195 197 201 205 207 210 215 219 223 227 232 238 245 252 259 264 268 271 273 277 280 282 284 287 288 291 293 296 298 300 302 304 305 305 306 307 308 308 309 309 309 308 308
185 187 192 197 201 206 212 217 223 228 235 242 250 257 262 265 268 271 274 277 279 282 285 287 290 293 296 299 301 303 304 305 306 306 307 308 309 309 309 310 309 309 309
173 177 183 189 196 203 210 217 224 231 239 246 253 258 261 265 268 271 273 276 280 283 286 290 293 296 299 301 303 304 305 306 307 308 309 309 310 310 310 310 311 311 310
165 172 179 188 196 204 212 220 229 237 244 250 254 259 262 264 266 270 274 278 282 286 289 293 297 299 301 302 304 305 306 307 309 309 310 310 311 311 311 312 312 312 311
166 176 184 192 200 208 216 224 232 238 244 249 252 256 259 263 268 272 276 281 286 290 293 297 299 300 302 303 305 306 308 309 310 310 310 311 312 312 312 313 313 313 311
172 181 189 196 204 211 218 225 232 237 242 247 252 257 261 266 271 277 282 287 291 294 296 298 300 301 303 305 307 308 309 310 310 311 312 313 313 314 314 315 315 313 311
178 185 192 197 203 208 215 221 229 236 243 250 256 262 268 275 281 285 289 292 294 296 298 300 301 303 305 307 309 310 311 312 312 313 313 314 315 315 316 316 315 313 311
170 177 185 192 199 208 216 225 234 243 252 260 268 275 281 285 288 291 293 295 296 298 300 302 304 306 308 310 311 312 312 313 314 315 316 316 316 317 317 316 315 314 313
178 186 195 202 211 220 230 240 250 260 269 277 282 286 289 291 292 294 295 297 299 301 303 305 307 309 311 312 312 313 314 315 316 317 317 317 317 318 318 318 317 317 316
214 218 223 229 236 246 256 264 271 279 284 287 290 292 293 294 295 297 299 300 302 304 306 308 310 311 312 313 313 314 315 317 317 318 318 318 318 319 320 320 321 321 321
235 239 245 252 261 269 275 281 287 290 292 293 294 295 296 297 298 300 302 304 305 307 309 310 311 312 313 314 316 317 318 318 319 318 318 318 319 321 323 323 324 325 325
251 256 261 267 273 280 285 290 293 295 296 297 298 298 299 301 302 304 305 307 308 309 310 311 312 314 316 318 319 319 319 319 319 319 319 320 321 324 326 327 328 329 329
Height
5737 5739 5742 5745 5748 5749 5751 5754 5756 5757 5757 5759 5760 5761 5762 5762 5763 5764 5765 5765 5765 5765 5764 5763 5762 5761 5760 5759 5757 5755 5753 5751 5748 5745 5743 5740 5736 5733 5730 5727 5724 5721 5718
5725 5728 5731 5735 5738 5741 5742 5745 5747 5748 5749 5750 5752 5753 5754 5755 5756 5757 5758 5758 5758 5757 5756 5756 5755 5754 5753 5751 5750 5748 5746 5743 5740 5736 5733 5730 5727 5723 5720 5716 5713 5709 5706
5713 5716 5720 5724 5728 5731 5734 5736 5739 5740 5741 5742 5744 5746 5746 5747 5748 5749 5750 5750 5750 5750 5749 5749 5748 5746 5745 5743 5741 5739 5737 5735 5732 5728 5724 5720 5717 5714 5711 5705 5701 5696 5692
5700 5703 5707 5712 5717 5721 5724 5728 5730 5732 5733 5734 5736 5738 5739 5740 5741 5741 5742 5743 5742 5742 5742 5741 5740 5738 5737 5735 5732 5730 5727 5725 5722 5719 5714 5711 5707 5704 5702 5699 5692 5686 5681
5687 5691 5695 5700 5705 5709 5714 5718 5721 5723 5725 5727 5729 5730 5731 5732 5733 5734 5735 5735 5735 5734 5734 5732 5731 5730 5728 5725 5723 5720 5717 5714 5711 5707 5704 5700 5695 5691 5688 5686 5682 5676 5670
5673 5678 5682 5687 5692 5697 5702 5707 5711 5714 5717 5720 5722 5723 5724 5725 5725 5726 5727 5727 5727 5726 5725 5723 5722 5720 5718 5716 5713 5710 5707 5703 5700 5696 5692 5688 5684 5679 5674 5670 5666 5661 5655
5659 5665 5670 5675 5681 5687 5692 5698 5702 5705 5709 5712 5714 5715 5716 5717 5718 5719 5719 5719 5719 5717 5716 5714 5712 5711 5708 5706 5703 5699 5696 5692 5688 5684 5680 5676 5671 5665 5659 5654 5649 5644 5638
5645 5651 5657 5663 5670 5676 5682 5688 5692 5696 5700 5704 5707 5708 5709 5710 5711 5711 5711 5711 5710 5709 5707 5705 5703 5701 5698 5695 5692 5688 5684 5680 5677 5672 5668 5662 5657 5651 5644 5638 5632 5626 5621
5630 5638 5645 5652 5659 5666 5672 5678 5683 5687 5691 5695 5698 5700 5701 5702 5703 5703 5703 5702 5701 5700 5698 5696 5694 5691 5688 5685 5681 5677 5673 5669 5665 5660 5654 5649 5642 5635 5628 5621 5613 5606 5601
5615 5624 5633 5641 5649 5656 5662 5668 5673 5678 5682 5686 5690 5692 5694 5695 5695 5695 5695 5694 5693 5691 5689 5687 5684 5681 5678 5675 5671 5666 5662 5657 5653 5647 5641 5634 5627 5620 5612 5604 5596 5586 5578
5601 5611 5621 5630 5638 5646 5653 5660 5665 5669 5674 5678 5682 5685 5686 5687 5687 5687 5686 5685 5684 5682 5680 5678 5675 5672 5668 5664 5660 5656 5651 5646 5640 5633 5626 5619 5611 5603 5595 5586 5577 5567 5558
5588 5599 5610 5620 5629 5638 5645 5652 5657 5661 5666 5670 5674 5677 5679 5680 5679 5679 5678 5677 5676 5674 5671 5668 5665 5662 5658 5654 5649 5645 5639 5633 5626 5619 5611 5603 5595 5586 5577 5567 5558 5548 5538
5578 5590 5601 5612 5621 5630 5637 5644 5649 5654 5658 5663 5667 5670 5671 5672 5672 5671 5670 5669 5667 5665 5662 5659 5655 5652 5648 5643 5639 5633 5627 5620 5612 5604 5596 5587 5578 5569 5559 5549 5539 5529 5518
5571 5583 5595 5605 5614 5623 5630 5637 5642 5647 5652 5657 5660 5663 5664 5664 5664 5663 5662 5661 5658 5656 5653 5649 5646 5641 5637 5632 5627 5621 5614 5605 5597 5589 5580 5571 5561 5551 5542 5532 5521 5509 5497
5568 5579 5591 5601 5610 5618 5625 5631 5637 5642 5647 5651 5654 5656 5657 5657 5657 5656 5654 5652 5649 5646 5643 5640 5636 5631 5626 5621 5614 5607 5600 5591 5582 5573 5564 5555 5545 5535 5524 5512 5500 5486 5471
5568 5579 5589 5598 5607 5615 5622 5628 5633 5638 5642 5646 5648 5650 5650 5650 5649 5648 5646 5643 5640 5637 5634 5630 5625 5620 5615 5608 5601 5594 5585 5576 5567 5558 5549 5539 5529 5518 5506 5492 5477 5460 5443
5572 5581 5590 5598 5606 5613 5619 5624 5629 5634 5637 5640 5642 5642 5642 5642 5641 5639 5637 5634 5631 5629 5625 5620 5615 5609 5603 5596 5588 5580 5571 5562 5552 5543 5533 5523 5512 5499 5486 5472 5455 5436 5416
5577 5585 5592 5599 5606 5611 5617 5622 5626 5629 5632 5634 5635 5635 5635 5633 5632 5630 5628 5626 5623 5619 5615 5610 5604 5598 5591 5583 5576 5567 5558 5548 5538 5528 5517 5506 5493 5478 5464 5450 5433 5413 5395
5583 5589 5595 5600 5606 5611 5615 5619 5622 5624 5626 5627 5628 5627 5627 5626 5624 5623 5621 5618 5614 5610 5605 5599 5593 5586 5579 5571 5562 5554 5545 5535 5524 5513 5500 5487 5474 5459 5442 5426 5410 5394 5378
5586 5591 5595 5600 5604 5608 5611 5614 5617 5619 5620 5621 5621 5621 5620 5619 5617 5615 5612 5609 5605 5600 5594 5589 5582 5575 5567 5559 5550 5541 5532 5523 5512 5498 5483 5468 5452 5435 5417 5401 5388 5377 5366
5589 5592 5596 5599 5602 5605 5608 5610 5612 5614 5615 5615 5615 5615 5614 5612 5610 5607 5604 5599 5595 5590 5584 5578 5571 5563 5555 5547 5537 5527 5517 5506 5493 5479 5464 5448 5430 5413 5396 5383 5372 5363 5356
5591 5593 5596 5598 5601 5603 5606 5607 5609 5610 5610 5610 5610 5609 5607 5605 5602 5598 5594 5590 5585 5579 5573 5566 5558 5551 5543 5534 5524 5513 5500 5488 5474 5459 5443 5426 5409 5394 5381 5371 5362 5354 5346
5593 5594 5596 5598 5600 5602 5604 5605 5606 5606 5606 5605 5604 5602 5600 5597 5594 5590 5585 5580 5575 5569 5562 5555 5547 5539 5530 5521 5510 5498 5484 5470 5455 5439 5421 5405 5391 5379 5369 5361 5354 5347 5339
5593 5595 5596 5598 5599 5600 5601 5602 5602 5601 5600 5599 5597 5595 5592 5589 5585 5580 5576 5570 5564 5558 5551 5544 5536 5527 5518 5507 5496 5483 5469 5454 5438 5420 5404 5390 5378 5369 5362 5354 5347 5340 5333
5593 5594 5595 5596 5597 5597 5598 5598 5597 5596 5595 5593 5591 5588 5584 5580 5576 5571 5566 5560 5554 5547 5541 5533 5525 5515 5505 5493 5480 5466 5451 5436 5420 5404 5391 5380 5371 5363 5355 5348 5341 5335 5328
5591 5592 5593 5594 5594 5594 5594 5594 5593 5591 5589 5586 5583 5579 5576 5571 5567 5562 5556 5550 5544 5537 5529 5521 5511 5500 5489 5477 5463 5447 5431 5416 5403 5391 5381 5372 5364 5358 5351 5344 5337 5330 5323